Time,TemperatureF,DewpointF,PressureIn,WindDirection,WindDirectionDegrees,WindSpeedMPH,WindSpeedGustMPH,Humidity,HourlyPrecipIn,Conditions,Clouds,dailyrainin,SoftwareType,DateUTC
2013-05-15 00:00:00,61.0,51.5,30.33,West,259,0.0,0.0,71,0.00,,CLR,0.00,VWS V14.01,2013-05-15 04:00:00,
2013-05-15 00:01:00,61.0,51.5,30.33,West,259,0.0,0.0,71,0.00,,CLR,0.00,VWS V14.01,2013-05-15 04:01:00,
2013-05-15 00:02:00,61.0,51.5,30.33,West,259,0.0,0.0,71,0.00,,CLR,0.00,VWS V14.01,2013-05-15 04:02:00,
2013-05-15 00:03:00,60.9,51.5,30.33,West,259,0.0,0.0,71,0.00,,CLR,0.00,VWS V14.01,2013-05-15 04:03:00,
2013-05-15 00:08:00,60.7,51.6,30.33,West,259,0.0,0.0,72,0.00,,CLR,0.00,VWS V14.01,2013-05-15 04:08:00,
2013-05-15 00:14:00,60.7,51.6,30.33,West,259,0.0,0.0,72,0.00,,CLR,0.00,VWS V14.01,2013-05-15 04:14:00,
2013-05-15 00:19:00,60.5,51.4,30.33,West,259,0.0,0.0,72,0.00,,CLR,0.00,VWS V14.01,2013-05-15 04:19:00,
2013-05-15 00:24:00,60.5,51.4,30.33,West,259,0.0,1.0,72,0.00,,CLR,0.00,VWS V14.01,2013-05-15 04:24:00,
2013-05-15 00:29:00,60.7,51.6,30.33,West,259,0.0,0.0,72,0.00,,CLR,0.00,VWS V14.01,2013-05-15 04:29:00,
2013-05-15 00:34:00,60.9,51.8,30.32,West,259,0.0,0.0,72,0.00,,CLR,0.00,VWS V14.01,2013-05-15 04:34:00,
2013-05-15 00:39:00,60.7,51.6,30.32,West,259,0.0,0.0,72,0.00,,CLR,0.00,VWS V14.01,2013-05-15 04:39:00,
2013-05-15 00:44:00,60.7,51.6,30.32,West,259,0.0,0.0,72,0.00,,CLR,0.00,VWS V14.01,2013-05-15 04:44:00,
2013-05-15 00:49:00,60.5,51.4,30.32,West,259,0.0,0.0,72,0.00,,CLR,0.00,VWS V14.01,2013-05-15 04:49:00,
2013-05-15 00:54:00,60.5,51.4,30.32,West,259,0.0,0.0,72,0.00,,CLR,0.00,VWS V14.01,2013-05-15 04:54:00,
2013-05-15 00:59:00,60.5,51.4,30.32,West,259,0.0,0.0,72,0.00,,CLR,0.00,VWS V14.01,2013-05-15 04:59:00,
2013-05-15 01:05:00,60.5,51.4,30.32,West,259,0.0,0.0,72,0.00,,CLR,0.00,VWS V14.01,2013-05-15 05:05:00,
2013-05-15 01:10:00,60.5,51.4,30.32,West,259,0.0,0.0,72,0.00,,CLR,0.00,VWS V14.01,2013-05-15 05:10:00,
2013-05-15 01:15:00,60.5,51.8,30.32,West,259,0.0,0.0,73,0.00,,CLR,0.00,VWS V14.01,2013-05-15 05:15:00,
2013-05-15 01:20:00,60.5,51.8,30.32,West,259,0.0,0.0,73,0.00,,CLR,0.00,VWS V14.01,2013-05-15 05:20:00,
2013-05-15 01:25:00,60.5,51.8,30.32,West,259,0.0,0.0,73,0.00,,CLR,0.00,VWS V14.01,2013-05-15 05:25:00,
2013-05-15 01:30:00,60.5,51.8,30.31,West,259,0.0,0.0,73,0.00,,CLR,0.00,VWS V14.01,2013-05-15 05:30:00,
2013-05-15 01:35:00,60.5,51.8,30.31,West,259,0.0,0.0,73,0.00,,CLR,0.00,VWS V14.01,2013-05-15 05:35:00,
2013-05-15 01:40:00,60.4,51.7,30.31,West,259,0.0,0.0,73,0.00,,CLR,0.00,VWS V14.01,2013-05-15 05:40:00,
2013-05-15 01:45:00,60.4,51.7,30.30,West,259,0.0,0.0,73,0.00,,CLR,0.00,VWS V14.01,2013-05-15 05:45:00,
2013-05-15 01:50:00,60.4,52.1,30.30,West,259,0.0,0.0,74,0.00,,CLR,0.00,VWS V14.01,2013-05-15 05:50:00,
2013-05-15 01:55:00,60.2,51.9,30.30,West,259,0.0,0.0,74,0.00,,CLR,0.00,VWS V14.01,2013-05-15 05:55:00,
2013-05-15 02:00:00,60.1,51.8,30.30,West,259,0.0,0.0,74,0.00,,CLR,0.00,VWS V14.01,2013-05-15 06:00:00,
2013-05-15 02:05:00,60.1,52.2,30.30,West,259,0.0,0.0,75,0.00,,CLR,0.00,VWS V14.01,2013-05-15 06:05:00,
2013-05-15 02:10:00,60.1,52.2,30.30,West,259,0.0,0.0,75,0.00,,CLR,0.00,VWS V14.01,2013-05-15 06:10:00,
2013-05-15 02:15:00,60.2,52.3,30.29,West,259,0.0,0.0,75,0.00,,CLR,0.00,VWS V14.01,2013-05-15 06:15:00,
2013-05-15 02:20:00,60.4,52.5,30.29,West,259,0.0,0.0,75,0.00,,CLR,0.00,VWS V14.01,2013-05-15 06:20:00,
2013-05-15 02:26:00,60.5,52.5,30.29,West,259,0.0,0.0,75,0.00,,CLR,0.00,VWS V14.01,2013-05-15 06:26:00,
2013-05-15 02:31:00,60.5,52.5,30.29,West,259,0.0,0.0,75,0.00,,CLR,0.00,VWS V14.01,2013-05-15 06:31:00,
2013-05-15 02:36:00,60.5,52.5,30.29,West,259,0.0,0.0,75,0.00,,CLR,0.00,VWS V14.01,2013-05-15 06:36:00,
2013-05-15 02:41:00,60.4,52.5,30.29,West,259,0.0,0.0,75,0.00,,CLR,0.00,VWS V14.01,2013-05-15 06:41:00,
2013-05-15 02:46:00,60.4,52.8,30.29,West,259,0.0,0.0,76,0.00,,CLR,0.00,VWS V14.01,2013-05-15 06:46:00,
2013-05-15 02:51:00,60.2,52.6,30.29,West,259,0.0,0.0,76,0.00,,CLR,0.00,VWS V14.01,2013-05-15 06:51:00,
2013-05-15 02:56:00,60.2,53.0,30.29,West,259,0.0,0.0,77,0.00,,CLR,0.00,VWS V14.01,2013-05-15 06:56:00,
2013-05-15 03:01:00,60.4,53.2,30.29,West,259,0.0,0.0,77,0.00,,CLR,0.00,VWS V14.01,2013-05-15 07:01:00,
2013-05-15 03:06:00,60.4,53.2,30.29,West,259,0.0,0.0,77,0.00,,CLR,0.00,VWS V14.01,2013-05-15 07:06:00,
2013-05-15 03:11:00,60.5,53.3,30.29,West,259,0.0,0.0,77,0.00,,CLR,0.00,VWS V14.01,2013-05-15 07:11:00,
2013-05-15 03:17:00,60.5,53.3,30.29,West,259,0.0,0.0,77,0.00,,CLR,0.00,VWS V14.01,2013-05-15 07:17:00,
2013-05-15 03:22:00,60.5,53.3,30.29,West,259,0.0,0.0,77,0.00,,CLR,0.00,VWS V14.01,2013-05-15 07:22:00,
2013-05-15 03:27:00,60.5,53.6,30.29,West,259,0.0,0.0,78,0.00,,CLR,0.00,VWS V14.01,2013-05-15 07:27:00,
2013-05-15 03:32:00,60.5,53.6,30.29,West,259,0.0,0.0,78,0.00,,CLR,0.00,VWS V14.01,2013-05-15 07:32:00,
2013-05-15 03:37:00,60.5,53.6,30.29,West,259,0.0,0.0,78,0.00,,CLR,0.00,VWS V14.01,2013-05-15 07:37:00,
2013-05-15 03:42:00,60.4,53.5,30.29,West,259,0.0,0.0,78,0.00,,CLR,0.00,VWS V14.01,2013-05-15 07:42:00,
2013-05-15 03:47:00,60.5,53.6,30.29,West,259,0.0,0.0,78,0.00,,CLR,0.00,VWS V14.01,2013-05-15 07:47:00,
2013-05-15 03:52:00,60.4,53.9,30.29,West,259,0.0,0.0,79,0.00,,CLR,0.00,VWS V14.01,2013-05-15 07:52:00,
2013-05-15 03:57:00,60.5,54.0,30.29,West,259,0.0,0.0,79,0.00,,CLR,0.00,VWS V14.01,2013-05-15 07:57:00,
2013-05-15 04:02:00,60.5,54.0,30.29,West,259,0.0,0.0,79,0.00,,CLR,0.00,VWS V14.01,2013-05-15 08:02:00,
2013-05-15 04:07:00,60.4,54.2,30.29,West,259,0.0,0.0,80,0.00,,CLR,0.00,VWS V14.01,2013-05-15 08:07:00,
2013-05-15 04:12:00,60.2,54.0,30.29,West,259,0.0,0.0,80,0.00,,CLR,0.00,VWS V14.01,2013-05-15 08:12:00,
2013-05-15 04:17:00,60.1,53.9,30.30,West,259,0.0,0.0,80,0.00,,CLR,0.00,VWS V14.01,2013-05-15 08:17:00,
2013-05-15 04:22:00,59.9,54.1,30.30,West,259,0.0,0.0,81,0.00,,CLR,0.00,VWS V14.01,2013-05-15 08:22:00,
2013-05-15 04:27:00,59.9,54.4,30.30,West,259,0.0,0.0,82,0.00,,CLR,0.00,VWS V14.01,2013-05-15 08:27:00,
2013-05-15 04:32:00,59.8,54.3,30.30,West,259,0.0,0.0,82,0.00,,CLR,0.00,VWS V14.01,2013-05-15 08:32:00,
2013-05-15 04:37:00,59.8,54.6,30.30,West,259,0.0,0.0,83,0.00,,CLR,0.00,VWS V14.01,2013-05-15 08:37:00,
2013-05-15 04:42:00,59.9,54.7,30.30,West,259,0.0,0.0,83,0.00,,CLR,0.00,VWS V14.01,2013-05-15 08:42:00,
2013-05-15 04:47:00,60.1,55.3,30.30,West,259,0.0,0.0,84,0.00,,CLR,0.00,VWS V14.01,2013-05-15 08:47:00,
2013-05-15 04:52:00,60.2,55.0,30.30,West,259,0.0,0.0,83,0.00,,CLR,0.00,VWS V14.01,2013-05-15 08:52:00,
2013-05-15 04:57:00,60.2,55.0,30.30,West,259,0.0,0.0,83,0.00,,CLR,0.00,VWS V14.01,2013-05-15 08:57:00,
2013-05-15 05:02:00,60.2,55.0,30.30,West,259,0.0,0.0,83,0.00,,CLR,0.00,VWS V14.01,2013-05-15 09:02:00,
2013-05-15 05:08:00,60.2,55.3,30.30,West,259,0.0,0.0,84,0.00,,CLR,0.00,VWS V14.01,2013-05-15 09:08:00,
2013-05-15 05:13:00,60.2,55.3,30.30,West,259,0.0,0.0,84,0.00,,CLR,0.00,VWS V14.01,2013-05-15 09:13:00,
2013-05-15 05:18:00,60.4,55.5,30.30,West,259,0.0,0.0,84,0.00,,CLR,0.00,VWS V14.01,2013-05-15 09:18:00,
2013-05-15 05:23:00,60.2,55.3,30.30,West,259,0.0,0.0,84,0.00,,CLR,0.00,VWS V14.01,2013-05-15 09:23:00,
2013-05-15 05:28:00,60.2,55.3,30.30,West,259,0.0,0.0,84,0.00,,CLR,0.00,VWS V14.01,2013-05-15 09:28:00,
2013-05-15 05:33:00,60.2,55.3,30.30,SW,233,0.0,1.0,84,0.00,,CLR,0.00,VWS V14.01,2013-05-15 09:33:00,
2013-05-15 05:38:00,60.2,55.3,30.30,SW,233,0.0,0.0,84,0.00,,CLR,0.00,VWS V14.01,2013-05-15 09:38:00,
2013-05-15 05:43:00,60.2,55.3,30.30,WSW,249,0.0,0.0,84,0.00,,CLR,0.00,VWS V14.01,2013-05-15 09:43:00,
2013-05-15 05:48:00,60.2,55.3,30.31,WSW,248,0.0,0.0,84,0.00,,CLR,0.00,VWS V14.01,2013-05-15 09:48:00,
2013-05-15 05:53:00,60.1,55.3,30.31,WSW,248,0.0,0.0,84,0.00,,CLR,0.00,VWS V14.01,2013-05-15 09:53:00,
2013-05-15 05:58:00,60.1,55.3,30.31,WSW,248,0.0,0.0,84,0.00,,CLR,0.00,VWS V14.01,2013-05-15 09:58:00,
2013-05-15 06:03:00,59.9,55.4,30.31,WSW,248,0.0,0.0,85,0.00,,FEW200,0.00,VWS V14.01,2013-05-15 10:03:00,
2013-05-15 06:08:00,59.8,55.3,30.31,WSW,248,0.0,0.0,85,0.00,,FEW200,0.00,VWS V14.01,2013-05-15 10:08:00,
2013-05-15 06:13:00,59.8,55.6,30.31,WSW,248,0.0,0.0,86,0.00,,FEW200,0.00,VWS V14.01,2013-05-15 10:13:00,
2013-05-15 06:18:00,59.6,55.4,30.32,WSW,248,0.0,0.0,86,0.00,,FEW200,0.00,VWS V14.01,2013-05-15 10:18:00,
2013-05-15 06:24:00,59.6,55.4,30.32,WSW,248,0.0,0.0,86,0.00,,FEW200,0.00,VWS V14.01,2013-05-15 10:24:00,
2013-05-15 06:29:00,59.6,55.4,30.32,WSW,248,0.0,0.0,86,0.00,,FEW200,0.00,VWS V14.01,2013-05-15 10:29:00,
2013-05-15 06:34:00,59.6,55.7,30.32,WSW,251,0.0,0.0,87,0.00,,FEW200,0.00,VWS V14.01,2013-05-15 10:34:00,
2013-05-15 06:39:00,59.6,55.7,30.32,WSW,251,0.0,0.0,87,0.00,,FEW200,0.00,VWS V14.01,2013-05-15 10:39:00,
2013-05-15 06:44:00,59.6,55.7,30.32,WSW,251,0.0,0.0,87,0.00,,FEW200,0.00,VWS V14.01,2013-05-15 10:44:00,
2013-05-15 06:49:00,59.9,56.0,30.32,WSW,251,0.0,0.0,87,0.00,,FEW200,0.00,VWS V14.01,2013-05-15 10:49:00,
2013-05-15 06:54:00,60.1,56.2,30.32,WSW,251,0.0,0.0,87,0.00,,FEW200,0.00,VWS V14.01,2013-05-15 10:54:00,
2013-05-15 06:59:00,60.4,56.5,30.32,WSW,251,0.0,0.0,87,0.00,,FEW200,0.00,VWS V14.01,2013-05-15 10:59:00,
2013-05-15 07:04:00,60.7,56.8,30.33,WSW,251,0.0,0.0,87,0.00,,FEW180,0.00,VWS V14.01,2013-05-15 11:04:00,
2013-05-15 07:09:00,61.2,57.0,30.33,WSW,251,0.0,0.0,86,0.00,,FEW180,0.00,VWS V14.01,2013-05-15 11:09:00,
2013-05-15 07:14:00,61.5,57.0,30.33,WSW,251,0.0,0.0,85,0.00,,FEW180,0.00,VWS V14.01,2013-05-15 11:14:00,
2013-05-15 07:19:00,62.0,57.5,30.33,WSW,251,0.0,0.0,85,0.00,,FEW180,0.00,VWS V14.01,2013-05-15 11:19:00,
2013-05-15 07:25:00,62.3,57.4,30.33,WSW,251,0.0,0.0,84,0.00,,FEW180,0.00,VWS V14.01,2013-05-15 11:25:00,
2013-05-15 07:30:00,62.7,57.5,30.34,West,259,0.0,0.0,83,0.00,,FEW180,0.00,VWS V14.01,2013-05-15 11:30:00,
2013-05-15 07:36:00,63.1,57.2,30.34,SW,231,0.0,0.0,81,0.00,,FEW180,0.00,VWS V14.01,2013-05-15 11:36:00,
2013-05-15 07:41:00,63.4,56.8,30.34,WSW,240,0.0,0.0,79,0.00,,FEW180,0.00,VWS V14.01,2013-05-15 11:41:00,
2013-05-15 07:46:00,63.9,56.6,30.33,WSW,243,0.0,1.0,77,0.00,,FEW180,0.00,VWS V14.01,2013-05-15 11:46:00,
2013-05-15 07:51:00,64.3,56.6,30.33,SSW,211,0.0,0.0,76,0.00,,FEW180,0.00,VWS V14.01,2013-05-15 11:51:00,
2013-05-15 07:56:00,64.8,55.6,30.33,WSW,238,0.0,0.0,72,0.00,,FEW180,0.00,VWS V14.01,2013-05-15 11:56:00,
2013-05-15 08:01:00,65.2,55.2,30.33,West,273,0.0,0.0,70,0.00,,FEW180,0.00,VWS V14.01,2013-05-15 12:01:00,
2013-05-15 08:07:00,65.6,54.8,30.33,SSW,201,0.0,0.0,68,0.00,,FEW180,0.00,VWS V14.01,2013-05-15 12:07:00,
2013-05-15 08:12:00,66.3,54.6,30.33,NW,304,0.0,2.0,66,0.00,,FEW180,0.00,VWS V14.01,2013-05-15 12:12:00,
2013-05-15 08:17:00,66.8,54.2,30.33,NW,315,0.0,0.0,64,0.00,,FEW180,0.00,VWS V14.01,2013-05-15 12:17:00,
2013-05-15 08:23:00,67.1,54.1,30.33,West,264,0.0,0.0,63,0.00,,FEW180,0.00,VWS V14.01,2013-05-15 12:23:00,
2013-05-15 08:28:00,67.6,53.7,30.33,NNW,339,1.0,1.0,61,0.00,,FEW180,0.00,VWS V14.01,2013-05-15 12:28:00,
2013-05-15 08:33:00,67.9,53.5,30.33,WNW,283,0.0,1.0,60,0.00,,FEW180,0.00,VWS V14.01,2013-05-15 12:33:00,
2013-05-15 08:38:00,68.3,53.9,30.33,NW,304,0.0,1.0,60,0.00,,FEW180,0.00,VWS V14.01,2013-05-15 12:38:00,
2013-05-15 08:43:00,68.9,54.0,30.33,WSW,250,0.0,0.0,59,0.00,,FEW180,0.00,VWS V14.01,2013-05-15 12:43:00,
2013-05-15 08:48:00,69.6,54.7,30.34,South,181,0.0,2.0,59,0.00,,FEW180,0.00,VWS V14.01,2013-05-15 12:48:00,
2013-05-15 08:53:00,69.9,54.0,30.34,WNW,286,0.0,0.0,57,0.00,,FEW180,0.00,VWS V14.01,2013-05-15 12:53:00,
2013-05-15 08:58:00,70.3,53.4,30.34,SSW,198,0.0,0.0,55,0.00,,FEW180,0.00,VWS V14.01,2013-05-15 12:58:00,
2013-05-15 09:04:00,70.8,53.8,30.34,SW,233,1.0,1.0,55,0.00,,CLR,0.00,VWS V14.01,2013-05-15 13:04:00,
2013-05-15 09:09:00,71.5,54.0,30.34,WNW,292,1.0,2.0,54,0.00,,CLR,0.00,VWS V14.01,2013-05-15 13:09:00,
2013-05-15 09:14:00,71.8,53.8,30.34,West,275,0.0,1.0,53,0.00,,CLR,0.00,VWS V14.01,2013-05-15 13:14:00,
2013-05-15 09:19:00,72.3,54.2,30.33,WNW,282,0.0,2.0,53,0.00,,CLR,0.00,VWS V14.01,2013-05-15 13:19:00,
2013-05-15 09:24:00,72.8,54.2,30.33,SSW,193,0.0,1.0,52,0.00,,CLR,0.00,VWS V14.01,2013-05-15 13:24:00,
2013-05-15 09:29:00,73.2,52.9,30.33,WSW,248,0.0,2.0,49,0.00,,CLR,0.00,VWS V14.01,2013-05-15 13:29:00,
2013-05-15 09:34:00,73.5,52.6,30.33,SW,236,0.0,2.0,48,0.00,,CLR,0.00,VWS V14.01,2013-05-15 13:34:00,
2013-05-15 09:39:00,73.9,52.4,30.33,SSW,201,0.0,3.0,47,0.00,,CLR,0.00,VWS V14.01,2013-05-15 13:39:00,
2013-05-15 09:45:00,74.0,53.1,30.33,West,274,2.0,2.0,48,0.00,,CLR,0.00,VWS V14.01,2013-05-15 13:45:00,
2013-05-15 09:50:00,74.6,53.6,30.33,West,277,2.0,2.0,48,0.00,,CLR,0.00,VWS V14.01,2013-05-15 13:50:00,
2013-05-15 09:55:00,74.7,53.2,30.33,WNW,292,0.0,0.0,47,0.00,,CLR,0.00,VWS V14.01,2013-05-15 13:55:00,
2013-05-15 10:00:00,75.1,52.3,30.33,SW,226,0.0,3.0,45,0.00,,CLR,0.00,VWS V14.01,2013-05-15 14:00:00,
2013-05-15 10:05:00,75.4,53.2,30.33,West,274,2.0,2.0,46,0.00,,CLR,0.00,VWS V14.01,2013-05-15 14:05:00,
2013-05-15 10:10:00,75.6,51.5,30.33,SSW,202,0.0,3.0,43,0.00,,CLR,0.00,VWS V14.01,2013-05-15 14:10:00,
2013-05-15 10:15:00,76.0,53.8,30.33,West,281,0.0,2.0,46,0.00,,CLR,0.00,VWS V14.01,2013-05-15 14:15:00,
2013-05-15 10:20:00,76.3,52.2,30.33,South,181,0.0,3.0,43,0.00,,CLR,0.00,VWS V14.01,2013-05-15 14:20:00,
2013-05-15 10:25:00,76.7,53.8,30.33,ENE,75,0.0,2.0,45,0.00,,CLR,0.00,VWS V14.01,2013-05-15 14:25:00,
2013-05-15 10:30:00,76.7,51.9,30.32,West,262,0.0,5.0,42,0.00,,CLR,0.00,VWS V14.01,2013-05-15 14:30:00,
2013-05-15 10:35:00,76.8,53.3,30.32,NNW,328,0.0,2.0,44,0.00,,CLR,0.00,VWS V14.01,2013-05-15 14:35:00,
2013-05-15 10:40:00,77.2,53.6,30.32,SSW,196,1.0,2.0,44,0.00,,CLR,0.00,VWS V14.01,2013-05-15 14:40:00,
2013-05-15 10:45:00,77.2,53.0,30.32,SW,214,0.0,3.0,43,0.00,,CLR,0.00,VWS V14.01,2013-05-15 14:45:00,
2013-05-15 10:50:00,77.6,54.6,30.32,SW,221,0.0,2.0,45,0.00,,CLR,0.00,VWS V14.01,2013-05-15 14:50:00,
2013-05-15 10:55:00,77.9,53.6,30.32,SSE,148,0.0,3.0,43,0.00,,CLR,0.00,VWS V14.01,2013-05-15 14:55:00,
2013-05-15 11:00:00,78.5,55.4,30.32,NNW,347,2.0,2.0,45,0.00,,CLR,0.00,VWS V14.01,2013-05-15 15:00:00,
2013-05-15 11:06:00,78.5,54.2,30.32,East,88,0.0,4.0,43,0.00,,CLR,0.00,VWS V14.01,2013-05-15 15:06:00,
2013-05-15 11:11:00,78.3,54.0,30.32,South,177,1.0,2.0,43,0.00,,CLR,0.00,VWS V14.01,2013-05-15 15:11:00,
2013-05-15 11:16:00,78.5,54.8,30.31,South,180,0.0,0.0,44,0.00,,CLR,0.00,VWS V14.01,2013-05-15 15:16:00,
2013-05-15 11:21:00,79.0,54.6,30.31,SW,235,2.0,6.0,43,0.00,,CLR,0.00,VWS V14.01,2013-05-15 15:21:00,
2013-05-15 11:26:00,79.0,54.6,30.31,SSW,208,0.0,1.0,43,0.00,,CLR,0.00,VWS V14.01,2013-05-15 15:26:00,
2013-05-15 11:32:00,79.2,55.4,30.31,WNW,289,0.0,1.0,44,0.00,,CLR,0.00,VWS V14.01,2013-05-15 15:32:00,
2013-05-15 11:37:00,79.4,55.6,30.31,SSW,208,1.0,1.0,44,0.00,,CLR,0.00,VWS V14.01,2013-05-15 15:37:00,
2013-05-15 11:42:00,79.9,55.4,30.31,NNW,338,1.0,3.0,43,0.00,,CLR,0.00,VWS V14.01,2013-05-15 15:42:00,
2013-05-15 11:47:00,80.1,55.6,30.30,West,281,0.0,2.0,43,0.00,,CLR,0.00,VWS V14.01,2013-05-15 15:47:00,
2013-05-15 11:52:00,80.1,56.9,30.30,NW,321,0.0,0.0,45,0.00,,CLR,0.00,VWS V14.01,2013-05-15 15:52:00,
2013-05-15 11:57:00,80.9,57.6,30.30,West,271,2.0,2.0,45,0.00,,CLR,0.00,VWS V14.01,2013-05-15 15:57:00,
2013-05-15 12:03:00,81.1,56.5,30.29,West,259,0.0,0.0,43,0.00,,CLR,0.00,VWS V14.01,2013-05-15 16:03:00,
2013-05-15 12:08:00,81.1,56.5,30.29,WNW,293,2.0,2.0,43,0.00,,CLR,0.00,VWS V14.01,2013-05-15 16:08:00,
2013-05-15 12:13:00,81.4,56.8,30.29,West,269,0.0,1.0,43,0.00,,CLR,0.00,VWS V14.01,2013-05-15 16:13:00,
2013-05-15 12:18:00,81.6,57.6,30.29,SW,223,2.0,2.0,44,0.00,,CLR,0.00,VWS V14.01,2013-05-15 16:18:00,
2013-05-15 12:24:00,81.6,58.2,30.29,South,170,0.0,2.0,45,0.00,,CLR,0.00,VWS V14.01,2013-05-15 16:24:00,
2013-05-15 12:29:00,82.2,58.1,30.29,NNW,342,1.0,2.0,44,0.00,,CLR,0.00,VWS V14.01,2013-05-15 16:29:00,
2013-05-15 12:34:00,82.8,58.7,30.28,WNW,294,0.0,2.0,44,0.00,,CLR,0.00,VWS V14.01,2013-05-15 16:34:00,
2013-05-15 12:39:00,82.6,57.2,30.28,WSW,249,0.0,5.0,42,0.00,,CLR,0.00,VWS V14.01,2013-05-15 16:39:00,
2013-05-15 12:45:00,82.8,57.4,30.28,South,169,0.0,0.0,42,0.00,,CLR,0.00,VWS V14.01,2013-05-15 16:45:00,
2013-05-15 12:50:00,83.0,59.5,30.28,West,274,0.0,1.0,45,0.00,,CLR,0.00,VWS V14.01,2013-05-15 16:50:00,
2013-05-15 12:55:00,83.0,56.2,30.28,WSW,252,0.0,3.0,40,0.00,,CLR,0.00,VWS V14.01,2013-05-15 16:55:00,
2013-05-15 13:00:00,82.6,57.9,30.27,West,261,0.0,0.0,43,0.00,,CLR,0.00,VWS V14.01,2013-05-15 17:00:00,
2013-05-15 13:05:00,83.0,58.2,30.27,WSW,240,0.0,4.0,43,0.00,,CLR,0.00,VWS V14.01,2013-05-15 17:05:00,
2013-05-15 13:10:00,83.2,57.8,30.27,WNW,285,0.0,3.0,42,0.00,,CLR,0.00,VWS V14.01,2013-05-15 17:10:00,
2013-05-15 13:16:00,83.4,57.9,30.27,West,278,0.0,2.0,42,0.00,,CLR,0.00,VWS V14.01,2013-05-15 17:16:00,
2013-05-15 13:21:00,84.0,59.8,30.27,East,82,0.0,1.0,44,0.00,,CLR,0.00,VWS V14.01,2013-05-15 17:21:00,
2013-05-15 13:26:00,84.3,58.7,30.27,SW,230,0.0,0.0,42,0.00,,CLR,0.00,VWS V14.01,2013-05-15 17:26:00,
2013-05-15 13:31:00,84.1,58.5,30.26,North,358,0.0,4.0,42,0.00,,CLR,0.00,VWS V14.01,2013-05-15 17:31:00,
2013-05-15 13:36:00,84.1,57.2,30.26,WSW,245,0.0,3.0,40,0.00,,CLR,0.00,VWS V14.01,2013-05-15 17:36:00,
2013-05-15 13:41:00,84.3,56.7,30.26,WSW,238,3.0,6.0,39,0.00,,CLR,0.00,VWS V14.01,2013-05-15 17:41:00,
2013-05-15 13:46:00,84.5,58.2,30.25,WNW,284,0.0,1.0,41,0.00,,CLR,0.00,VWS V14.01,2013-05-15 17:46:00,
2013-05-15 13:52:00,84.7,58.4,30.25,WNW,285,2.0,3.0,41,0.00,,CLR,0.00,VWS V14.01,2013-05-15 17:52:00,
2013-05-15 13:57:00,84.7,57.7,30.25,SW,217,0.0,0.0,40,0.00,,CLR,0.00,VWS V14.01,2013-05-15 17:57:00,
2013-05-15 14:02:00,84.7,57.0,30.25,WSW,256,1.0,2.0,39,0.00,,CLR,0.00,VWS V14.01,2013-05-15 18:02:00,
2013-05-15 14:07:00,84.9,59.9,30.25,WSW,248,1.0,2.0,43,0.00,,CLR,0.00,VWS V14.01,2013-05-15 18:07:00,
2013-05-15 14:12:00,85.5,60.5,30.25,WNW,295,2.0,2.0,43,0.00,,CLR,0.00,VWS V14.01,2013-05-15 18:12:00,
2013-05-15 14:18:00,85.3,58.3,30.24,WSW,237,2.0,2.0,40,0.00,,CLR,0.00,VWS V14.01,2013-05-15 18:18:00,
2013-05-15 14:23:00,85.3,59.0,30.24,West,262,1.0,1.0,41,0.00,,CLR,0.00,VWS V14.01,2013-05-15 18:23:00,
2013-05-15 14:28:00,85.5,59.1,30.24,WSW,253,0.0,2.0,41,0.00,,CLR,0.00,VWS V14.01,2013-05-15 18:28:00,
2013-05-15 14:33:00,86.1,59.0,30.23,WNW,298,0.0,3.0,40,0.00,,CLR,0.00,VWS V14.01,2013-05-15 18:33:00,
2013-05-15 14:38:00,86.3,58.5,30.23,WNW,300,0.0,1.0,39,0.00,,CLR,0.00,VWS V14.01,2013-05-15 18:38:00,
2013-05-15 14:43:00,86.3,59.2,30.23,SW,229,3.0,3.0,40,0.00,,CLR,0.00,VWS V14.01,2013-05-15 18:43:00,
2013-05-15 14:48:00,86.7,58.8,30.22,South,184,1.0,1.0,39,0.00,,CLR,0.00,VWS V14.01,2013-05-15 18:48:00,
2013-05-15 14:53:00,87.4,61.5,30.22,South,183,1.0,1.0,42,0.00,,CLR,0.00,VWS V14.01,2013-05-15 18:53:00,
2013-05-15 14:59:00,87.4,58.0,30.22,WSW,248,0.0,1.0,37,0.00,,CLR,0.00,VWS V14.01,2013-05-15 18:59:00,
2013-05-15 15:04:00,87.2,58.5,30.22,West,271,2.0,2.0,38,0.00,,CLR,0.00,VWS V14.01,2013-05-15 19:04:00,
2013-05-15 15:09:00,87.0,59.1,30.22,WNW,300,4.0,4.0,39,0.00,,CLR,0.00,VWS V14.01,2013-05-15 19:09:00,
2013-05-15 15:14:00,86.7,58.1,30.22,SSW,195,0.0,0.0,38,0.00,,CLR,0.00,VWS V14.01,2013-05-15 19:14:00,
2013-05-15 15:19:00,87.0,59.1,30.21,WSW,245,0.0,1.0,39,0.00,,CLR,0.00,VWS V14.01,2013-05-15 19:19:00,
2013-05-15 15:24:00,87.6,59.6,30.21,SSW,193,0.0,0.0,39,0.00,,CLR,0.00,VWS V14.01,2013-05-15 19:24:00,
2013-05-15 15:30:00,87.4,58.7,30.20,WNW,285,0.0,1.0,38,0.00,,CLR,0.00,VWS V14.01,2013-05-15 19:30:00,
2013-05-15 15:35:00,87.0,59.1,30.20,NNW,338,0.0,1.0,39,0.00,,CLR,0.00,VWS V14.01,2013-05-15 19:35:00,
2013-05-15 15:40:00,87.0,58.3,30.20,West,277,0.0,2.0,38,0.00,,CLR,0.00,VWS V14.01,2013-05-15 19:40:00,
2013-05-15 15:47:00,87.2,61.3,30.19,North,358,0.0,0.0,42,0.00,,CLR,0.00,VWS V14.01,2013-05-15 19:47:00,
2013-05-15 15:52:00,87.4,61.5,30.19,WNW,285,1.0,4.0,42,0.00,,CLR,0.00,VWS V14.01,2013-05-15 19:52:00,
2013-05-15 15:57:00,87.2,62.7,30.19,ENE,75,1.0,4.0,44,0.00,,CLR,0.00,VWS V14.01,2013-05-15 19:57:00,
2013-05-15 16:02:00,87.0,61.8,30.19,East,90,0.0,2.0,43,0.00,,FEW250,0.00,VWS V14.01,2013-05-15 20:02:00,
2013-05-15 16:07:00,87.2,62.7,30.19,WNW,295,0.0,0.0,44,0.00,,FEW250,0.00,VWS V14.01,2013-05-15 20:07:00,
2013-05-15 16:13:00,86.3,61.2,30.19,WNW,284,1.0,2.0,43,0.00,,FEW250,0.00,VWS V14.01,2013-05-15 20:13:00,
2013-05-15 16:18:00,86.3,63.1,30.19,ESE,105,2.0,3.0,46,0.00,,FEW250,0.00,VWS V14.01,2013-05-15 20:18:00,
2013-05-15 16:23:00,85.9,62.7,30.19,East,86,1.0,13.0,46,0.00,,FEW250,0.00,VWS V14.01,2013-05-15 20:23:00,
2013-05-15 16:28:00,85.9,62.1,30.19,ESE,103,4.0,4.0,45,0.00,,FEW250,0.00,VWS V14.01,2013-05-15 20:28:00,
2013-05-15 16:33:00,85.9,62.1,30.19,ENE,77,0.0,1.0,45,0.00,,FEW250,0.00,VWS V14.01,2013-05-15 20:33:00,
2013-05-15 16:38:00,85.7,62.6,30.19,East,88,0.0,3.0,46,0.00,,FEW250,0.00,VWS V14.01,2013-05-15 20:38:00,
2013-05-15 16:43:00,85.9,62.7,30.19,ENE,75,0.0,2.0,46,0.00,,FEW250,0.00,VWS V14.01,2013-05-15 20:43:00,
2013-05-15 16:48:00,85.5,62.4,30.18,ESE,104,0.0,1.0,46,0.00,,FEW250,0.00,VWS V14.01,2013-05-15 20:48:00,
2013-05-15 16:53:00,85.7,61.9,30.18,East,99,1.0,6.0,45,0.00,,FEW250,0.00,VWS V14.01,2013-05-15 20:53:00,
2013-05-15 16:58:00,84.9,61.2,30.18,NNW,348,0.0,3.0,45,0.00,,FEW250,0.00,VWS V14.01,2013-05-15 20:58:00,
2013-05-15 17:03:00,84.7,61.7,30.18,WNW,289,0.0,0.0,46,0.00,,FEW250,0.00,VWS V14.01,2013-05-15 21:03:00,
2013-05-15 17:09:00,84.5,61.5,30.18,SSE,167,0.0,1.0,46,0.00,,FEW250,0.00,VWS V14.01,2013-05-15 21:09:00,
2013-05-15 17:14:00,84.3,61.3,30.18,NE,49,0.0,1.0,46,0.00,,FEW250,0.00,VWS V14.01,2013-05-15 21:14:00,
2013-05-15 17:19:00,84.3,61.9,30.18,ESE,110,5.0,5.0,47,0.00,,FEW250,0.00,VWS V14.01,2013-05-15 21:19:00,
2013-05-15 17:24:00,84.3,61.3,30.18,East,92,0.0,2.0,46,0.00,,FEW250,0.00,VWS V14.01,2013-05-15 21:24:00,
2013-05-15 17:29:00,83.8,60.8,30.18,West,277,0.0,3.0,46,0.00,,FEW250,0.00,VWS V14.01,2013-05-15 21:29:00,
2013-05-15 17:34:00,83.6,61.8,30.18,West,276,0.0,3.0,48,0.00,,FEW250,0.00,VWS V14.01,2013-05-15 21:34:00,
2013-05-15 17:40:00,83.4,60.5,30.18,SW,221,2.0,2.0,46,0.00,,FEW250,0.00,VWS V14.01,2013-05-15 21:40:00,
2013-05-15 17:46:00,83.6,61.8,30.18,NNW,337,0.0,0.0,48,0.00,,FEW250,0.00,VWS V14.01,2013-05-15 21:46:00,
2013-05-15 17:51:00,83.8,60.8,30.18,NE,54,0.0,2.0,46,0.00,,FEW250,0.00,VWS V14.01,2013-05-15 21:51:00,
2013-05-15 17:56:00,83.4,61.1,30.18,WNW,295,0.0,1.0,47,0.00,,FEW250,0.00,VWS V14.01,2013-05-15 21:56:00,
2013-05-15 18:01:00,83.4,60.5,30.18,West,268,0.0,2.0,46,0.00,,SCT250,0.00,VWS V14.01,2013-05-15 22:01:00,
2013-05-15 18:06:00,83.4,60.5,30.18,ENE,77,1.0,7.0,46,0.00,,SCT250,0.00,VWS V14.01,2013-05-15 22:06:00,
2013-05-15 18:11:00,83.0,61.3,30.18,East,94,0.0,0.0,48,0.00,,SCT250,0.00,VWS V14.01,2013-05-15 22:11:00,
2013-05-15 18:16:00,83.0,60.7,30.18,South,191,0.0,3.0,47,0.00,,SCT250,0.00,VWS V14.01,2013-05-15 22:16:00,
2013-05-15 18:21:00,82.6,60.3,30.18,NW,309,1.0,2.0,47,0.00,,SCT250,0.00,VWS V14.01,2013-05-15 22:21:00,
2013-05-15 18:26:00,82.0,60.4,30.18,WNW,299,0.0,3.0,48,0.00,,SCT250,0.00,VWS V14.01,2013-05-15 22:26:00,
2013-05-15 18:31:00,81.6,60.6,30.18,NNW,334,0.0,3.0,49,0.00,,SCT250,0.00,VWS V14.01,2013-05-15 22:31:00,
2013-05-15 18:36:00,81.2,60.2,30.18,East,98,0.0,2.0,49,0.00,,SCT250,0.00,VWS V14.01,2013-05-15 22:36:00,
2013-05-15 18:41:00,80.9,60.0,30.18,ENE,74,1.0,2.0,49,0.00,,SCT250,0.00,VWS V14.01,2013-05-15 22:41:00,
2013-05-15 18:46:00,80.9,60.5,30.17,SSE,158,0.0,0.0,50,0.00,,SCT250,0.00,VWS V14.01,2013-05-15 22:46:00,
2013-05-15 18:51:00,80.9,60.5,30.17,WSW,240,1.0,1.0,50,0.00,,SCT250,0.00,VWS V14.01,2013-05-15 22:51:00,
2013-05-15 18:57:00,80.3,60.0,30.17,WNW,291,2.0,3.0,50,0.00,,SCT250,0.00,VWS V14.01,2013-05-15 22:57:00,
2013-05-15 19:02:00,79.8,59.5,30.17,NW,304,0.0,0.0,50,0.00,,FEW250,0.00,VWS V14.01,2013-05-15 23:02:00,
2013-05-15 19:07:00,79.4,59.7,30.17,East,89,0.0,3.0,51,0.00,,FEW250,0.00,VWS V14.01,2013-05-15 23:07:00,
2013-05-15 19:12:00,79.2,59.5,30.17,NE,36,0.0,1.0,51,0.00,,FEW250,0.00,VWS V14.01,2013-05-15 23:12:00,
2013-05-15 19:17:00,78.8,59.7,30.17,SSW,194,0.0,0.0,52,0.00,,FEW250,0.00,VWS V14.01,2013-05-15 23:17:00,
2013-05-15 19:22:00,78.3,59.2,30.17,WSW,252,0.0,1.0,52,0.00,,FEW250,0.00,VWS V14.01,2013-05-15 23:22:00,
2013-05-15 19:27:00,77.7,59.2,30.17,SW,228,0.0,0.0,53,0.00,,FEW250,0.00,VWS V14.01,2013-05-15 23:27:00,
2013-05-15 19:32:00,77.0,59.1,30.17,SE,143,0.0,1.0,54,0.00,,FEW250,0.00,VWS V14.01,2013-05-15 23:32:00,
2013-05-15 19:38:00,76.5,59.2,30.17,NNE,28,0.0,0.0,55,0.00,,FEW250,0.00,VWS V14.01,2013-05-15 23:38:00,
2013-05-15 19:43:00,76.0,59.2,30.17,WSW,245,0.0,0.0,56,0.00,,FEW250,0.00,VWS V14.01,2013-05-15 23:43:00,
2013-05-15 19:48:00,75.8,59.0,30.18,NE,34,0.0,2.0,56,0.00,,FEW250,0.00,VWS V14.01,2013-05-15 23:48:00,
2013-05-15 19:53:00,75.3,59.0,30.18,SSW,204,0.0,0.0,57,0.00,,FEW250,0.00,VWS V14.01,2013-05-15 23:53:00,
2013-05-15 19:58:00,74.9,58.7,30.18,SSE,158,0.0,2.0,57,0.00,,FEW250,0.00,VWS V14.01,2013-05-15 23:58:00,
2013-05-15 20:03:00,74.6,58.9,30.18,WSW,237,0.0,2.0,58,0.00,,FEW250,0.00,VWS V14.01,2013-05-16 00:03:00,
2013-05-15 20:08:00,74.2,58.5,30.18,WSW,238,0.0,1.0,58,0.00,,FEW250,0.00,VWS V14.01,2013-05-16 00:08:00,
2013-05-15 20:13:00,73.9,58.7,30.18,SSE,148,0.0,0.0,59,0.00,,FEW250,0.00,VWS V14.01,2013-05-16 00:13:00,
2013-05-15 20:18:00,73.7,58.5,30.18,West,278,0.0,0.0,59,0.00,,FEW250,0.00,VWS V14.01,2013-05-16 00:18:00,
2013-05-15 20:23:00,73.3,58.6,30.18,West,277,0.0,0.0,60,0.00,,FEW250,0.00,VWS V14.01,2013-05-16 00:23:00,
2013-05-15 20:29:00,73.0,58.8,30.18,West,274,0.0,0.0,61,0.00,,FEW250,0.00,VWS V14.01,2013-05-16 00:29:00,
2013-05-15 20:34:00,72.7,58.5,30.18,West,276,0.0,0.0,61,0.00,,FEW250,0.00,VWS V14.01,2013-05-16 00:34:00,
2013-05-15 20:39:00,72.5,58.8,30.18,West,276,0.0,0.0,62,0.00,,FEW250,0.00,VWS V14.01,2013-05-16 00:39:00,
2013-05-15 20:44:00,72.3,58.6,30.18,North,358,0.0,0.0,62,0.00,,FEW250,0.00,VWS V14.01,2013-05-16 00:44:00,
2013-05-15 20:49:00,72.1,58.8,30.18,West,266,0.0,0.0,63,0.00,,FEW250,0.00,VWS V14.01,2013-05-16 00:49:00,
2013-05-15 20:55:00,72.0,58.7,30.18,West,265,0.0,0.0,63,0.00,,FEW250,0.00,VWS V14.01,2013-05-16 00:55:00,
2013-05-15 21:00:00,71.8,58.5,30.18,West,267,0.0,0.0,63,0.00,,FEW250,0.00,VWS V14.01,2013-05-16 01:00:00,
2013-05-15 21:05:00,71.6,58.3,30.18,West,267,0.0,0.0,63,0.00,,CLR,0.00,VWS V14.01,2013-05-16 01:05:00,
2013-05-15 21:10:00,71.5,58.7,30.18,West,268,0.0,0.0,64,0.00,,CLR,0.00,VWS V14.01,2013-05-16 01:10:00,
2013-05-15 21:15:00,71.3,58.5,30.18,West,269,0.0,0.0,64,0.00,,CLR,0.00,VWS V14.01,2013-05-16 01:15:00,
2013-05-15 21:20:00,71.1,58.3,30.18,West,269,0.0,0.0,64,0.00,,CLR,0.00,VWS V14.01,2013-05-16 01:20:00,
2013-05-15 21:25:00,71.1,58.3,30.18,East,80,0.0,0.0,64,0.00,,CLR,0.00,VWS V14.01,2013-05-16 01:25:00,
2013-05-15 21:30:00,70.9,58.1,30.19,East,80,0.0,0.0,64,0.00,,CLR,0.00,VWS V14.01,2013-05-16 01:30:00,
2013-05-15 21:35:00,70.9,58.6,30.19,South,184,0.0,0.0,65,0.00,,CLR,0.00,VWS V14.01,2013-05-16 01:35:00,
2013-05-15 21:41:00,70.6,58.3,30.19,WSW,238,0.0,2.0,65,0.00,,CLR,0.00,VWS V14.01,2013-05-16 01:41:00,
2013-05-15 21:46:00,70.6,58.3,30.19,SW,234,0.0,0.0,65,0.00,,CLR,0.00,VWS V14.01,2013-05-16 01:46:00,
2013-05-15 21:51:00,70.6,58.7,30.19,SW,216,0.0,0.0,66,0.00,,CLR,0.00,VWS V14.01,2013-05-16 01:51:00,
2013-05-15 21:57:00,70.4,58.5,30.19,ESE,102,0.0,0.0,66,0.00,,CLR,0.00,VWS V14.01,2013-05-16 01:57:00,
2013-05-15 22:02:00,70.3,58.4,30.19,South,177,0.0,2.0,66,0.00,,CLR,0.00,VWS V14.01,2013-05-16 02:02:00,
2013-05-15 22:07:00,70.4,58.5,30.19,WSW,257,0.0,1.0,66,0.00,,CLR,0.00,VWS V14.01,2013-05-16 02:07:00,
2013-05-15 22:12:00,70.4,58.5,30.19,WSW,251,0.0,0.0,66,0.00,,CLR,0.00,VWS V14.01,2013-05-16 02:12:00,
2013-05-15 22:17:00,70.4,58.5,30.19,North,354,0.0,0.0,66,0.00,,CLR,0.00,VWS V14.01,2013-05-16 02:17:00,
2013-05-15 22:22:00,70.3,58.4,30.19,NNW,348,0.0,0.0,66,0.00,,CLR,0.00,VWS V14.01,2013-05-16 02:22:00,
2013-05-15 22:27:00,70.3,58.8,30.19,West,280,0.0,0.0,67,0.00,,CLR,0.00,VWS V14.01,2013-05-16 02:27:00,
2013-05-15 22:32:00,70.1,58.7,30.19,West,280,0.0,0.0,67,0.00,,CLR,0.00,VWS V14.01,2013-05-16 02:32:00,
2013-05-15 22:37:00,70.1,58.7,30.19,West,281,0.0,0.0,67,0.00,,CLR,0.00,VWS V14.01,2013-05-16 02:37:00,
2013-05-15 22:42:00,69.9,58.9,30.19,West,276,0.0,0.0,68,0.00,,CLR,0.00,VWS V14.01,2013-05-16 02:42:00,
2013-05-15 22:47:00,69.9,58.9,30.19,West,277,0.0,0.0,68,0.00,,CLR,0.00,VWS V14.01,2013-05-16 02:47:00,
2013-05-15 22:52:00,69.8,58.8,30.19,SSE,159,0.0,0.0,68,0.00,,CLR,0.00,VWS V14.01,2013-05-16 02:52:00,
2013-05-15 22:57:00,69.6,58.6,30.19,SSE,154,0.0,0.0,68,0.00,,CLR,0.00,VWS V14.01,2013-05-16 02:57:00,
2013-05-15 23:02:00,69.4,58.8,30.19,NE,56,0.0,0.0,69,0.00,,CLR,0.00,VWS V14.01,2013-05-16 03:02:00,
2013-05-15 23:07:00,69.4,58.8,30.19,ENE,75,0.0,0.0,69,0.00,,CLR,0.00,VWS V14.01,2013-05-16 03:07:00,
2013-05-15 23:13:00,69.3,58.7,30.19,ENE,75,0.0,0.0,69,0.00,,CLR,0.00,VWS V14.01,2013-05-16 03:13:00,
2013-05-15 23:18:00,69.3,58.7,30.19,East,79,0.0,0.0,69,0.00,,CLR,0.00,VWS V14.01,2013-05-16 03:18:00,
2013-05-15 23:23:00,69.1,58.5,30.19,SSE,165,0.0,2.0,69,0.00,,CLR,0.00,VWS V14.01,2013-05-16 03:23:00,
2013-05-15 23:28:00,69.1,58.5,30.19,ESE,104,0.0,0.0,69,0.00,,CLR,0.00,VWS V14.01,2013-05-16 03:28:00,
2013-05-15 23:33:00,69.1,58.5,30.19,ESE,104,0.0,0.0,69,0.00,,CLR,0.00,VWS V14.01,2013-05-16 03:33:00,
2013-05-15 23:39:00,69.1,58.5,30.19,ESE,113,0.0,0.0,69,0.00,,CLR,0.00,VWS V14.01,2013-05-16 03:39:00,
2013-05-15 23:44:00,69.1,58.5,30.19,ESE,118,0.0,0.0,69,0.00,,CLR,0.00,VWS V14.01,2013-05-16 03:44:00,
2013-05-15 23:49:00,68.9,58.3,30.19,East,98,0.0,0.0,69,0.00,,CLR,0.00,VWS V14.01,2013-05-16 03:49:00,
2013-05-15 23:54:00,68.8,58.6,30.19,East,98,0.0,0.0,70,0.00,,CLR,0.00,VWS V14.01,2013-05-16 03:54:00,
2013-05-15 23:59:00,68.8,58.6,30.19,East,98,0.0,0.0,70,0.00,,CLR,0.00,VWS V14.01,2013-05-16 03:59:00,